Regional Weather Roundup
Issued by NWS

Home | Current Version | Previous Version | Graphics & Text | Print | Product List | Glossary On
Versions: 1 2 3 4 5 6 7 8 9 10 11 12 13 14 15 16 17 18 19 20 21 22 23 24 25 26 27 28 29 30 31 32 33 34 35 36 37 38 39 40 41 42 43 44 45 46 47 48 49 50
000
ASUS43 KIND 160859
RWRIN

WEATHER ROUNDUP FOR INDIANA
NATIONAL WEATHER SERVICE INDIANAPOLIS IN
500 AM EDT TUE SEP 16 2014

NOTE: "FAIR" INDICATES FEW OR NO CLOUDS BELOW 12,000 FEET WITH NO
SIGNIFICANT WEATHER AND/OR OBSTRUCTIONS TO VISIBILITY.

* - STATION DOES NOT REPORT WEATHER SUCH AS PRECIPITATION OR FOG.

+ - STATION NOT QUALITY CONTROLLED BY THE NATIONAL WEATHER SERVICE.
    USE DATA WITH CAUTION...ESPECIALLY DEWPOINT AND RELATIVE
    HUMIDITY OBSERVATIONS.

INZ001>003-010>013-019-020-161000-
NORTHWEST INDIANA

CITY           SKY/WX    TMP DP  RH WIND       PRES   REMARKS
VALPARAISO     CLOUDY    52  49  89 CALM      30.17S

$$

LMZ046-743>745-161000-
SOUTHERN LAKE MICHIGAN

STATION/POSITION TIME  TEMP WIND        PRES
                       AIR  DIR/SP/G
                 (UTC) (F)  (DEG/KT/KT) (MB)
MICHIGAN CITY    0800   58  360/ 15/ 18   N/A

$$

INZ004-005-014>016-021>024-161000-
NORTH CENTRAL INDIANA

CITY           SKY/WX    TMP DP  RH WIND       PRES   REMARKS
GOSHEN         PTCLDY    50  48  93 N5        30.16S
PERU/GRISSOM   CLOUDY    52 N/A N/A N5        30.14S HAZE
SOUTH BEND     CLOUDY    53  50  89 NE7       30.17S

$$

INZ006>009-017-018-025>027-161000-
NORTHEAST INDIANA

CITY           SKY/WX    TMP DP  RH WIND       PRES   REMARKS
ANGOLA *+      CLOUDY    52  41  66 CALM      30.15R
FORT WAYNE     CLOUDY    52  51  97 N8        30.14S FOG

$$

INZ028-029-035-036-043>045-051>053-161000-
WEST CENTRAL INDIANA

CITY           SKY/WX    TMP DP  RH WIND       PRES   REMARKS
GREENCASTLE +  CLOUDY    54  52  94 N6        30.15R
LAFAYETTE      CLOUDY    53  52  96 N7        30.15S FOG
TERRE HAUTE    CLOUDY    56  54  93 N7        30.15R

$$

INZ030>032-037>040-046>048-054>057-064-065-161000-
CENTRAL INDIANA

CITY           SKY/WX    TMP DP  RH WIND       PRES   REMARKS
INDIANAPOLIS   MOCLDY    54  51  90 N9        30.13R
-EAGLE CREEK   CLOUDY    54  51  90 N8        30.13R
KOKOMO *+      CLOUDY    52  48  87 N7        30.15S
MT COMFORT *+  CLOUDY    54 N/A N/A N7        30.14R
SHELBYVILLE    CLOUDY    58  54  86 N6        30.12R

$$

INZ033-034-041-042-049-050-058-059-161000-
EAST CENTRAL INDIANA

CITY           SKY/WX    TMP DP  RH WIND       PRES   REMARKS
MUNCIE         CLEAR     51  49  92 N6        30.13R FOG

$$

INZ060-061-067>069-081>083-085>088-161000-
SOUTHWEST INDIANA

CITY           SKY/WX    TMP DP  RH WIND       PRES   REMARKS
EVANSVILLE     CLOUDY    61  57  87 NW9       30.14R

$$

INZ062-063-066-070>080-084-089>092-161000-
SOUTH CENTRAL AND SOUTHEAST INDIANA

CITY           SKY/WX    TMP DP  RH WIND       PRES   REMARKS
BLOOMINGTON    CLOUDY    57  55  93 N7        30.13R

$$



USA.gov is the U.S. government's official web portal to all federal, state and local government web resources and services.